Back to catalog

QIANFAN-94

AliveCommunicationsPO
NORAD 66036·PAYLOAD·🇨🇳 China

Launched Oct 17, 2025 from Taiyuan Satellite Launch Center

Loading…

Next Passes (next 24 hours)

TLE

FreshSource: Space-Track

Epoch: Sep 14, 2026, 09:10 UTC

1 66036U 25233D   26257.38244370  .00000073  00000-0  93744-4 0  9990
2 66036  89.0053  34.1028 0001807  97.8556 262.2800 13.51027184 45272

Track QIANFAN-94 in real time with AllMySat

Download on the App Store